This is the latest recevied weather packets stored in our database for station/object SR2CPA-13. If no packets are shown the sender has not sent any weather packets the latest 1 day(s).
| Time | Temp. | Humidity | Pressure | Rain* | Wind** | Luminosity | Snow |
|---|---|---|---|---|---|---|---|
| 1777990777 | 12.78° C | 99% | 0 hPa | 1.78 mm | 0.89 m/s, 344° | - | - |
| 1777990177 | 12.78° C | 99% | 0 hPa | 1.27 mm | 0.89 m/s, 341° | - | - |
| 1777989577 | 12.78° C | 99% | 0 hPa | 1.02 mm | 1.34 m/s, 22° | - | - |
| 1777988977 | 12.78° C | 99% | 0 hPa | 0.76 mm | 3.13 m/s, 16° | - | - |
| 1777988357 | 12.78° C | 99% | 0 hPa | 0.51 mm | 0.89 m/s, 20° | - | - |
| 1777987757 | 13.33° C | 99% | 0 hPa | 0.25 mm | 1.79 m/s, 349° | - | - |
| 1777987137 | 13.33° C | 99% | 0 hPa | 0 mm | 0.89 m/s, 12° | - | - |
| 1777986537 | 13.89° C | 99% | 0 hPa | 0 mm | 1.34 m/s, 2° | - | - |
| 1777985917 | 13.89° C | 99% | 0 hPa | 0 mm | 1.79 m/s, 358° | - | - |
| 1777985317 | 13.89° C | 99% | 0 hPa | 0 mm | 1.34 m/s, 50° | - | - |
| 1777984697 | 13.89° C | 99% | 0 hPa | 0 mm | 1.34 m/s, 8° | - | - |
| 1777984097 | 14.44° C | 99% | 0 hPa | 0 mm | 1.79 m/s, 18° | - | - |
| 1777983497 | 14.44° C | 99% | 0 hPa | 0 mm | 0.89 m/s, 23° | - | - |
| 1777982897 | 14.44° C | 99% | 0 hPa | 0 mm | 0.45 m/s, 341° | - | - |
| 1777982297 | 14.44° C | 99% | 0 hPa | 0 mm | 0.45 m/s, 14° | - | - |
| 1777981697 | 14.44° C | 99% | 0 hPa | 0 mm | 0.89 m/s, 5° | - | - |
| 1777981077 | 15° C | 99% | 0 hPa | 0 mm | 1.34 m/s, 0° | - | - |
| 1777980477 | 15° C | 99% | 0 hPa | 0.25 mm | 1.34 m/s, 33° | - | - |
| 1777979877 | 15° C | 99% | 0 hPa | 0.25 mm | 0 m/s | - | - |
| 1777979277 | 15° C | 99% | 0 hPa | 0.25 mm | 0 m/s | - | - |
| 1777978677 | 15.56° C | 99% | 0 hPa | 0.25 mm | 0 m/s | - | - |
| 1777978077 | 15.56° C | 99% | 0 hPa | 0 mm | 0 m/s | - | - |
| 1777977457 | 16.11° C | 84% | 0 hPa | 0 mm | 0 m/s | - | - |
| 1777976857 | 16.11° C | 71% | 0 hPa | 0 mm | 0 m/s | - | - |
| 1777976237 | 16.67° C | 74% | 0 hPa | 0 mm | 0 m/s | - | - |
* Rain latest hour (hover to see other rain measurements)
** Current wind speed in m/s (hover to see current wind gust speed)